RH
39 37 29 29 26 20 18 21 28 28 26 27 25 23 22 20 18 19 20 23 22 17 17 17 17 19 20 34 35 35 52 50 46 42 40 33 34 31 33 37 38 38 35 32 32
36 31 28 29 24 19 28 31 27 28 27 24 22 21 20 20 18 18 18 18 17 16 15 16 20 24 37 34 39 46 55 43 39 37 39 35 33 34 36 39 41 41 36 34 35
35 29 26 26 22 30 30 28 30 27 24 22 20 20 19 24 19 20 17 17 16 17 18 18 20 28 37 37 41 42 47 37 39 38 35 38 36 32 40 39 41 43 43 39 40
32 25 23 22 26 28 30 29 26 23 21 20 20 20 19 17 22 17 17 17 16 17 17 18 27 32 40 39 36 43 40 37 39 37 34 36 34 36 35 32 34 37 38 39 42
30 22 22 24 27 29 28 26 22 22 23 21 18 19 18 26 22 18 17 15 16 15 18 21 29 35 39 37 36 39 34 36 36 36 36 33 36 35 37 39 36 37 38 42 43
25 22 22 24 27 26 26 22 22 22 22 20 18 17 18 28 19 18 17 16 15 14 22 24 28 31 36 36 39 36 36 33 31 31 32 35 36 31 36 40 41 41 44 42 43
23 20 22 24 25 26 22 22 21 20 20 20 18 17 22 23 18 18 17 17 18 18 24 23 22 26 31 34 32 31 35 30 30 30 31 32 36 34 38 40 43 44 46 43 43
21 21 23 23 26 23 22 22 20 18 18 20 17 16 22 17 17 16 17 18 17 16 18 19 19 30 30 31 34 35 38 41 34 31 32 34 42 30 42 42 46 47 50 45 45
19 21 24 26 24 23 22 19 18 19 18 18 15 16 20 16 16 17 17 18 18 19 20 20 22 32 33 40 43 46 39 43 39 35 34 38 42 32 42 41 46 50 53 49 49
21 25 26 24 24 22 20 18 16 16 16 16 15 16 19 21 18 17 18 17 18 17 19 23 28 32 36 38 32 38 38 39 43 40 34 40 45 35 42 43 45 49 54 54 51
23 24 25 25 25 24 24 23 17 21 19 23 22 21 21 18 17 18 19 17 16 23 26 24 30 31 27 28 29 29 31 30 34 38 38 44 44 42 37 41 46 49 52 53 51
22 24 25 25 27 24 20 38 35 24 24 21 20 20 20 20 19 20 18 15 19 24 25 23 28 24 25 26 25 30 28 28 31 37 42 41 47 44 40 37 38 42 47 50 52
24 26 26 25 26 25 31 41 38 26 27 21 21 20 20 19 25 25 22 21 20 24 29 26 23 27 24 29 21 29 27 28 27 32 36 39 42 41 36 33 38 41 41 47 53
27 28 26 26 23 29 36 36 28 27 27 22 22 20 21 23 24 22 22 22 27 24 28 29 28 23 25 26 26 21 28 26 29 35 39 36 43 40 44 42 40 41 47 50 53
30 28 30 27 25 28 34 32 29 21 26 21 23 18 23 23 24 22 23 23 27 29 28 27 28 23 21 25 30 22 29 32 33 39 44 44 50 41 46 46 43 45 49 54 58
30 30 32 31 29 32 30 29 22 34 26 25 25 25 23 28 28 29 26 27 26 28 30 29 29 28 28 28 29 29 31 36 50 52 48 42 44 40 45 41 38 44 49 54 62
32 30 27 30 33 29 26 26 36 40 25 27 26 27 29 30 29 33 35 41 36 31 30 29 31 29 26 20 24 27 33 42 39 44 40 45 46 40 34 41 39 45 51 59 64
33 30 29 28 28 27 26 35 35 28 30 27 28 28 26 30 33 36 35 39 40 40 40 30 17 26 28 22 21 34 29 39 37 44 44 42 50 33 33 38 39 42 51 64 68
34 32 31 30 28 29 36 44 37 32 28 32 28 31 32 30 30 37 41 43 43 39 31 27 20 32 31 28 24 28 31 27 33 38 44 40 35 30 37 37 42 54 61 68 69
34 33 34 32 29 28 43 46 38 36 34 30 31 31 34 32 32 33 40 40 41 36 36 35 32 33 33 30 29 24 27 31 42 40 47 47 41 39 33 40 44 55 64 68 67
37 41 40 33 33 49 46 42 40 35 34 32 34 35 34 34 34 38 38 41 38 36 31 31 37 24 30 33 34 35 33 34 36 43 44 52 46 35 31 35 43 48 59 69 68
49 42 40 38 45 67 49 41 37 37 36 37 35 32 36 39 40 41 39 41 36 33 34 35 40 37 24 28 25 29 28 31 44 41 43 45 41 29 33 37 41 47 56 69 58
60 59 43 40 44 53 49 43 41 39 38 37 37 35 37 41 35 43 46 37 37 37 36 35 35 34 30 31 28 29 31 30 35 37 43 46 43 35 36 37 41 53 68 64 35
58 40 48 63 56 47 46 43 42 43 40 38 38 36 38 40 45 50 48 43 38 39 44 39 41 30 32 28 29 34 32 31 31 42 42 42 35 28 34 39 53 63 70 53 32
74 63 48 47 53 45 40 45 45 44 40 38 39 38 36 40 42 45 53 52 44 46 40 40 40 44 44 42 42 42 42 36 35 35 36 36 38 27 30 37 45 63 70 50 34
61 62 65 62 50 45 50 49 44 42 44 42 38 41 41 36 33 42 54 50 42 44 39 47 40 38 39 30 34 38 40 47 41 34 38 33 34 30 45 58 66 71 67 51 37
66 62 57 60 53 45 48 41 45 45 45 42 43 44 41 39 40 46 49 50 46 44 46 48 47 42 41 37 45 44 41 46 41 41 36 38 32 40 41 49 59 70 67 61 42
Wind_Speed
8 7 9 8 8 9 11 10 9 7 8 7 7 9 9 8 19 16 19 19 17 13 7 8 10 10 17 7 8 3 5 2 5 5 5 4 4 2 3 6 3 4 4 12 15
7 7 8 9 9 10 11 10 10 6 6 6 7 9 8 7 6 25 25 21 14 8 9 8 6 12 6 6 5 6 5 2 1 5 5 5 3 6 4 3 4 4 10 13 10
5 8 8 9 11 11 10 12 7 4 4 5 7 8 6 6 5 8 25 21 12 7 9 8 9 7 7 5 7 5 4 4 4 5 8 7 4 2 9 2 6 9 8 11 10
5 7 10 11 10 10 11 8 5 4 5 6 5 4 9 5 4 15 22 17 10 4 3 11 7 6 6 6 4 7 6 4 5 5 5 6 6 5 1 2 8 12 17 10 9
7 8 11 13 13 11 7 6 5 6 7 6 5 3 3 7 3 17 18 13 7 9 12 4 7 5 6 5 3 7 3 5 6 8 6 6 4 5 1 5 17 16 10 10 9
8 10 12 14 12 7 6 5 6 7 8 8 6 7 6 10 8 15 14 19 18 19 15 9 5 8 8 5 6 4 7 6 4 3 3 4 2 0 3 6 8 7 7 8 9
9 11 12 12 8 6 6 5 4 4 5 5 5 11 13 3 8 15 22 22 13 15 10 11 8 7 6 6 4 5 6 3 1 3 2 6 2 5 8 8 8 7 6 7 6
10 11 12 9 7 6 4 1 2 4 3 2 5 8 4 8 8 13 11 13 18 25 26 20 19 11 6 6 5 4 4 2 3 4 1 1 6 4 10 11 9 8 7 6 7
11 11 10 8 5 4 3 2 3 5 4 1 4 6 2 3 7 12 10 8 11 10 9 7 8 6 3 4 4 6 0 1 2 6 4 1 5 3 7 9 9 8 8 7 5
11 10 8 6 4 4 3 8 10 5 4 3 8 6 6 3 6 9 5 4 3 3 4 8 6 4 4 4 2 2 1 2 4 5 4 4 11 4 9 9 10 9 8 8 7
10 8 6 6 3 4 2 1 5 7 13 4 1 3 2 6 4 10 9 2 4 8 4 5 7 3 0 0 1 2 2 3 3 4 4 7 8 8 10 7 8 9 9 8 7
9 7 6 5 6 3 4 7 2 2 4 4 2 3 3 3 4 13 11 4 5 2 4 6 3 2 2 4 1 2 1 3 2 3 6 3 10 6 8 10 10 12 10 8 5
8 6 4 2 3 11 14 7 4 3 4 3 2 3 2 4 2 7 6 2 5 4 5 5 0 2 2 4 3 1 2 2 3 2 2 6 7 2 2 2 5 7 5 4 8
8 6 1 2 2 4 4 5 3 2 4 5 4 4 4 1 5 4 6 3 6 3 2 3 3 1 2 2 2 2 1 0 2 3 3 4 5 4 3 6 6 8 7 7 7
7 4 4 2 6 2 2 3 1 2 3 1 4 1 2 5 2 5 7 5 3 2 2 2 1 3 3 1 2 3 2 2 1 2 3 2 2 6 2 7 11 8 8 7 7
4 3 2 2 3 2 1 3 1 5 3 1 2 3 3 6 4 5 6 8 3 3 3 1 0 2 1 1 1 1 2 4 3 2 2 1 3 6 4 5 3 3 8 9 8
3 3 3 2 1 1 1 2 5 3 2 1 0 3 3 4 5 6 5 7 3 2 4 4 1 1 2 1 1 4 4 4 5 4 4 2 0 9 4 5 3 6 9 8 7
1 0 4 4 3 1 1 5 1 2 4 0 1 2 2 1 3 5 3 3 4 3 2 2 4 1 2 2 1 3 3 4 4 3 5 1 6 5 1 3 3 3 8 7 7
2 1 1 2 3 1 5 3 5 5 3 6 2 2 1 1 2 4 2 2 1 2 2 1 4 0 2 2 2 1 3 0 3 2 2 4 7 6 1 2 2 6 7 7 7
1 1 1 2 2 2 4 4 3 2 2 2 5 2 4 2 1 2 1 1 2 2 2 1 4 0 1 2 4 2 5 2 3 3 5 5 6 6 5 6 7 7 8 7 6
1 2 0 1 2 4 3 5 3 3 2 3 5 3 2 3 2 2 2 0 1 1 2 2 2 3 1 3 5 1 1 4 3 3 3 4 6 6 5 5 10 10 10 9 8
2 1 1 3 3 1 3 4 1 3 1 1 3 2 5 5 3 2 4 1 2 2 2 1 3 4 4 1 2 1 2 4 4 3 2 2 7 1 2 5 6 8 10 8 8
1 2 1 2 3 2 2 1 2 3 2 3 3 1 1 4 2 3 3 2 2 2 4 3 0 4 5 2 3 2 3 4 4 2 6 3 7 3 1 1 3 8 8 8 7
2 1 3 4 1 6 5 4 3 1 2 2 3 2 3 2 2 5 3 2 1 2 6 3 2 5 5 5 2 3 5 5 4 3 3 7 10 13 7 7 6 6 7 8 7
2 3 1 3 3 4 4 6 5 5 1 3 1 4 5 4 2 4 3 3 1 3 3 3 3 3 7 9 4 6 8 8 9 6 7 4 7 20 7 9 10 9 8 8 7
1 1 2 1 1 5 4 7 9 4 6 4 4 5 5 4 5 8 6 5 4 1 4 1 1 3 6 2 4 6 9 10 8 4 11 17 21 5 1 4 6 10 11 10 8
1 0 3 1 1 3 5 6 9 8 1 1 4 5 4 2 2 3 5 5 6 7 5 4 3 3 6 4 8 7 6 8 5 6 6 7 9 5 4 6 8 11 12 11 9
Wind_Direction
124 131 122 125 129 127 117 114 105 102 91 74 40 10 19 43 59 63 39 353 345 4 37 107 74 71 61 58 42 90 67 107 161 153 149 170 128 63 56 94 53 357 110 129 146
122 116 127 132 129 122 119 115 114 101 68 49 5 359 358 8 16 39 0 2 8 24 52 65 37 35 51 30 26 60 81 117 45 140 149 145 122 145 102 96 41 60 93 128 137
118 127 130 130 130 123 124 118 104 79 45 7 13 2 349 355 46 335 359 4 12 64 84 77 77 61 61 29 4 24 116 148 357 113 121 131 111 93 129 199 194 177 163 144 133
125 127 134 134 130 130 126 104 87 51 21 6 349 15 39 3 74 339 357 6 29 81 56 44 42 57 68 52 356 92 43 110 149 121 106 131 119 103 300 246 157 157 154 155 146
132 132 141 134 132 136 113 92 74 46 34 38 45 61 45 45 9 356 7 16 31 46 56 89 55 108 95 105 74 80 125 56 88 91 86 112 108 156 94 108 124 143 152 151 135
126 137 142 138 143 129 99 88 79 52 54 55 63 68 69 78 353 16 28 58 62 71 59 58 104 107 84 58 54 83 90 108 46 96 105 114 144 315 173 142 134 148 158 165 154
136 138 145 146 143 115 100 99 61 54 43 50 56 77 64 92 19 60 52 56 68 85 83 84 121 68 133 98 165 122 82 90 110 169 144 133 222 231 159 157 158 174 181 173 158
140 149 145 140 123 110 106 63 60 39 29 8 49 75 92 19 47 60 63 72 72 78 87 88 80 92 72 118 52 70 76 80 182 164 126 340 271 188 157 156 184 190 196 183 184
147 153 137 126 117 107 83 42 41 51 39 73 35 85 49 18 31 19 43 71 91 64 68 73 67 88 64 82 49 15 159 239 301 199 141 145 266 168 167 170 191 199 201 205 190
148 142 132 121 106 83 70 85 81 35 344 29 41 54 11 325 343 357 27 60 39 6 21 39 54 76 44 59 227 216 238 253 256 209 165 191 261 184 193 186 196 202 206 211 204
143 139 130 117 64 27 25 228 14 357 33 81 301 119 354 339 39 14 4 31 24 53 36 10 65 79 166 232 151 128 178 251 228 177 159 225 261 231 198 207 204 207 212 211 209
142 138 135 106 27 18 60 74 96 160 62 29 65 61 46 8 25 357 12 59 50 49 341 24 83 221 134 26 133 177 254 279 272 136 189 264 260 236 181 215 204 205 212 204 161
142 139 133 78 36 70 89 88 69 122 94 348 9 49 334 36 90 335 26 77 78 51 11 122 185 308 169 45 59 194 199 247 254 339 224 326 293 280 212 216 203 219 190 153 182
136 131 111 15 81 95 66 68 29 136 73 312 345 354 9 83 47 3 15 92 34 140 83 82 319 68 92 81 107 337 272 297 306 52 279 15 286 289 271 254 233 218 173 182 167
136 103 53 40 117 72 100 359 81 132 20 311 330 348 40 74 300 9 32 29 85 101 94 267 354 34 65 330 159 242 355 302 358 119 27 355 73 263 349 265 244 209 182 171 173
134 87 70 65 81 96 357 4 117 42 264 339 349 359 44 23 18 319 28 39 134 94 42 169 166 88 220 303 199 341 97 51 61 96 3 261 136 281 212 219 310 141 170 169 164
109 76 63 47 71 360 312 36 38 131 14 267 22 53 72 8 17 34 33 19 51 13 354 341 258 1 45 23 172 58 43 342 352 9 238 155 90 250 253 237 228 203 173 164 159
161 99 75 70 17 16 72 48 185 201 204 55 95 79 87 11 19 18 68 42 44 61 70 47 319 73 16 88 182 42 118 140 285 278 286 103 236 256 229 45 20 137 142 142 157
216 247 277 6 358 30 73 73 216 202 171 153 79 99 347 45 121 80 45 163 145 58 109 15 282 122 67 121 80 70 47 166 115 56 7 251 292 278 186 117 97 131 142 171 160
234 292 224 334 352 86 78 230 218 211 153 144 174 166 193 239 143 89 209 125 125 81 127 150 321 248 56 109 46 89 158 23 18 324 298 283 286 243 269 231 202 192 190 185 150
204 40 350 307 126 53 180 223 216 225 188 156 196 154 186 163 157 176 170 175 160 96 103 119 110 295 13 194 173 67 44 54 122 136 207 300 265 216 215 206 209 202 191 177 166
107 360 6 159 56 29 171 191 205 179 189 122 111 121 167 165 138 172 211 180 170 133 98 71 146 274 242 356 55 107 187 149 127 245 220 150 273 80 261 264 214 190 179 158 157
142 241 56 152 174 232 261 221 181 165 195 157 153 190 159 159 152 181 167 184 136 116 140 166 349 334 339 32 14 204 189 120 103 77 211 154 265 159 220 194 211 173 159 149 151
78 306 327 55 45 141 161 205 196 229 154 123 136 110 118 132 20 181 165 187 122 106 111 113 162 191 214 228 166 234 192 180 151 156 201 231 282 289 237 224 207 182 160 158 162
46 254 222 232 248 162 152 156 148 181 235 177 136 209 174 154 152 187 139 146 78 134 88 121 228 210 254 258 224 236 220 184 195 195 193 268 218 280 291 221 206 175 152 160 171
175 126 10 293 87 121 168 215 177 178 152 224 197 167 188 175 194 199 153 195 183 165 140 11 247 7 290 176 197 267 233 214 224 234 257 267 277 291 77 92 153 170 169 182 185
277 172 111 300 180 136 216 193 204 143 257 82 173 129 167 192 105 82 94 77 138 147 157 134 130 65 269 339 307 296 225 184 193 202 182 222 254 156 221 220 195 180 182 186 184